Regional Weather Roundup
Issued by NWS Newport/Morehead, NC

Current Version | Previous Version | Graphics & Text | Print | Product List | Glossary Off
Versions: 1 2 3 4 5 6 7 8 9 10 11 12 13 14 15 16 17 18 19 20 21 22 23 24 25 26 27 28 29 30 31 32 33 34 35 36 37 38 39 40 41 42 43 44 45 46 47 48 49 50

000
ASUS42 KMHX 051425
RWRMHX
WEATHER ROUNDUP FOR EASTERN NORTH CAROLINA
NATIONAL WEATHER SERVICE NEWPORT/MOREHEAD CITY NC
1000 AM EDT THU MAY 05 2016

NOTE: "FAIR" INDICATES FEW OR NO CLOUDS BELOW 12,000 FEET
WITH NO SIGNIFICANT WEATHER AND/OR OBSTRUCTIONS TO VISIBILITY

NCZ015>017-031-032-045>047-102-103-051500-
NORTH COAST

CITY           SKY/WX    TMP DP  RH WIND       PRES   REMARKS
EDENTON        CLOUDY    56  56 100 NE7       29.58F
ELIZABETH CITY CLOUDY    53  52  96 NE18      29.58F
KITTY HAWK     CLOUDY    53  53 100 N12G20    29.54F
MANTEO         CLOUDY    54  53  97 NE18      29.55F

$$

NCZ045>047-081-094-103-104-051500-
CENTRAL COAST

CITY           SKY/WX    TMP DP  RH WIND       PRES   REMARKS
FRISCO         CLOUDY    58  57  97 N12G23    29.52R
SWANQUARTER    NOT AVBL

$$

NCZ095-097-098-100-101-051500-
SOUTHERN COAST

CITY           SKY/WX    TMP DP  RH WIND       PRES   REMARKS
BEAUFORT       SUNNY     65  56  72 NE12G17   29.51F
CEDAR ISLAND   NOT AVBL
JACKSONVILLE   CLOUDY    67  56  67 VRB6      29.52S
PINEY ISLAND   CLOUDY   N/A N/A N/A NE15      29.51F
WILMINGTON     CLOUDY    68  60  75 CALM      29.51F


$$

NCZ011>013-027>030-043-044-078>080-089-090>093-098-051500-
COASTAL PLAIN

CITY           SKY/WX    TMP DP  RH WIND       PRES   REMARKS
AHOSKIE        CLOUDY    55  51  87 NE6       29.59S
CLINTON        MOSUNNY   66  61  85 NE5       29.53F
ELIZABETHTOWN  PTSUNNY   67  58  75 SE5       29.52F
GOLDSBORO      CLOUDY    59  59 100 NE7       29.53S
GREENVILLE     CLOUDY    59  54  82 E8        29.59S
HAVELOCK       CLOUDY    64  56  75 NE8       29.54R
KENANSVILLE    CLOUDY    61  59  94 CALM      29.55S FOG
KINSTON        CLOUDY    61  57  88 NE10      29.55S
NEW BERN       CLOUDY    63  55  75 N10       29.55S
RICHLANDS      CLOUDY    62  59  90 NE6       29.54S
ROCKY MOUNT    CLOUDY    56  53  90 NE7       29.57S
WASHINGTON     CLOUDY    57  54  89 NE8       29.55F
WHITEVILLE     NOT AVBL

$$

AMZ130-135-150-152-154-156-158-170-250-252-270-ANZ085-086-088-633-658-670-051500-
MARINE OBSERVATIONS

STATION/POSITION TIME  TEMP    WIND        PRES    WAVE   SWELL
                       AIR SEA DIR/SP/G            HT/PER HT/PER
                 (UTC) (F)     (DEG/KT/KT) (MB)    (FT/S) (FT/S)
CHESAPEAKE LIGHT 1400   49      30/ 23/ 25 1002.3
64 E VA BEACH    1350   51 52   10/ 21/ 25 1000.2    6/ 6
DUCK             1400   51 61   10/ 19/ 25 1000.2
2 E DUCK         1311      59                N/A     5/ 6
OREGON INLET     1400   53 61  360/ 13/ 21 1000.1
13E OREGON INLT  1400      56                N/A     6/ 6   2/ 7
HATTERAS CG      1400   59 68  360/ 21/ 24  999.1
DIAMOND BUOY     1350   60 71   10/ 19/ 23  998.6    4/ 5   2/ 8
CAPE LOOKOUT     1400   62      30/ 15/ 18  999.1
BEAUFORT LAB     1400   63 66   20/  9/ 15  998.6
30 SE NEW RVR IN 1325      73                N/A     4/ 7
27 SE WRIGHTSVLE 1408   67 72   40/ 10/ 16  998.9
5 SE WRIGHTSVLE  1408   66 69   60/ 10/ 14 1000.2
225 S CAPE HAT   1350   70 73  260/ 12/ 14 1000.1    5/ 7   5/ 7
41 SE CHARLESTON 1350   64 74  280/ 19/ 23 1001.5    5/ 5

$$



USA.gov is the U.S. government's official web portal to all federal, state and local government web resources and services.